Погода в Чернавке

Россия / Тамбовская область     52°10′22″N   42°25′34″E
темп.,
°C
ветер,
м/с
пор.,
м/с
влажн.,
%
обл.,
%
осадки,
мм/ч
давл.,
гПа
погр.,
м
10 апреля, сб
сб1000:00+3ссв487336 0.0 1025167
03:00+2ссв3875100 0.0 1026183
06:00+2ссв4128199 0.0 1026311
09:00+5св61067100 0.0 1026584
12:00+5ссв6973100 0.1 1025591
15:00+5ссв61181100 0.1 1025517
18:00+4ссв61185100 0.0 1024489
21:00+4ссв51187100 0.0 1024381
11 апреля, вс
вс1100:00+3с51191100 0.0 1024299
03:00+3с61391100 0.0 1025337
06:00+2ссв6148891 0.0 1027365
09:00+6ссв71274100 0.0 1027479
12:00+10св71070100 0.0 1027730
15:00+8св71288100 1.7 1027560
18:00+7св71188100 0.3 1028538
21:00+6св51093100 0.3 1028294
12 апреля, пн
пн1200:00+6св4995100 0.0 1028186
03:00+6св4894100 0.0 1028142
06:00+6св479495 0.0 1027125
09:00+13в476888 0.0 1027275
12:00+19вюв6844100 0.0 1026802
15:00+21юв793333 0.0 10261641
18:00+18вюв5104725 0.0 1026228
21:00+13вюв413666 0.0 1027214
13 апреля, вт
вт1300:00+10вюв4126763 0.0 1027185
03:00+8вюв4126621 0.0 1028190
06:00+7вюв4117081 0.0 1027184
09:00+13юв5950100 0.0 1027395
12:00+18юв683694 0.0 1026868
15:00+20юв683183 0.0 10251511
18:00+17юв510435 0.0 1025244
21:00+13юв5135729 0.0 1025228
14 апреля, ср
ср1400:00+10вюв4126257 0.0 1025191
03:00+9юв410642 0.0 1025147
06:00+8юв386847 0.0 1024135
09:00+14юв594999 0.0 1024366
12:00+18юв673587 0.0 10221004
15:00+20юв6828100 0.0 10212085
18:00+17юв3544100 0.0 102079
21:00+13юв355622 0.0 102072